Regional Weather Roundup
Issued by NWS Cleveland, OH

Home | Current Version | Previous Version | Text Only | Print | Product List | Glossary Off
Versions: 1 2 3 4 5 6 7 8 9 10 11 12 13 14 15 16 17 18 19 20 21 22 23 24 25 26 27 28 29 30 31 32 33 34 35 36 37 38 39 40 41 42 43 44 45 46 47 48 49 50

000
ASUS41 KCLE 141910
RWRCLE
OHIO REGIONAL WEATHER ROUNDUP
NATIONAL WEATHER SERVICE WILMINGTON, OH
200 PM EST THU DEC 14 2017

NOTE: "FAIR" INDICATES FEW OR NO CLOUDS BELOW 12,000 FEET WITH NO
SIGNIFICANT WEATHER AND/OR OBSTRUCTIONS TO VISIBILITY.

OHZ001>008-015>018-024>027-034-035-043-044-142000-
   NORTHWEST OHIO

CITY           SKY/WX    TMP DP  RH WIND       PRES   REMARKS
DEFIANCE       FAIR      20   5  52 E3        30.04F
FINDLAY        FAIR      19  10  68 W8        30.03R WCI   9
TOLEDO EXPRESS FAIR      19   7  59 NW8       30.03F WCI   9
TOLEDO EXEC    FAIR      22   5  48 W6        30.03F WCI  14
LIMA           FAIR      21  14  74 W7        30.02S WCI  12
$$

OHZ009>014-019>023-028>033-038-089-142000-
   NORTHEAST OHIO

CITY           SKY/WX    TMP DP  RH WIND       PRES   REMARKS
CLE-HOPKINS    PTSUNNY   26  15  63 W9G17     30.01F WCI  17
CLE-LAKEFRONT  PTSUNNY   26  14  60 W12       29.99S WCI  16
CUY CO. ARPT   PTSUNNY   25  18  74 NW12      29.98F WCI  14
LORAIN-ELYRIA  PTSUNNY   23  12  62 NW8       30.00S WCI  14
ASHTABULA      PTSUNNY   23   9  55 NW6       29.98R WCI  16
AKRON-CANTON   FLURRIES  25  13  60 N7        29.95S WCI  17
WOOSTER        MIX PCPN  23  14  68 NW9       29.98R WCI  13
MANSFIELD      FAIR      20  14  77 W6        29.98R WCI  12
YOUNGSTOWN     PTSUNNY   26  16  65 N8        29.94F WCI  18
$$

OHZ042-051>053-060>062-070>072-077>081-142000-
  SOUTHWEST OHIO

CITY           SKY/WX    TMP DP  RH WIND       PRES   REMARKS
CINC-COVINGTON CLOUDY    27  17  66 N8        30.02F WCI  19
CINC-LUNKEN    CLOUDY    29  17  61 N8        30.07S WCI  21
HAMILTON       CLOUDY    27  17  66 N7        30.07S WCI  19
DAYTON         PTSUNNY   23  16  74 N6        30.03F WCI  16
WRIGHT-PAT AFB CLOUDY    24  15  68 NE3       30.03F
DAYTON GENERAL CLOUDY    24  15  68 NW6       30.02S WCI  17
WILMINGTON     CLOUDY    23  16  74 N3        30.02R
$$

OHZ036-037-039>041-045>050-054>059-063>069-073>076-082>088-142000-
  CENTRAL AND SOUTHEAST OHIO

CITY           SKY/WX    TMP DP  RH WIND       PRES   REMARKS
COLUMBUS       CLOUDY    27  17  66 NW8       30.02S WCI  19
OSU AIRPORT    PTSUNNY   24  18  77 NW6       30.02S WCI  17
BOLTON FIELD   CLOUDY    25  16  68 NW8       30.02S WCI  16
RICKENBACK AFB CLOUDY    26  15  61 NW8       30.01S WCI  18
NEWARK         CLOUDY    27  16  63 NW8       30.00R WCI  19
MARION         NOT AVBL
LANCASTER      CLOUDY    27  17  66 NW9       30.01R WCI  18
ZANESVILLE     CLOUDY    28  14  55 N6        29.99R WCI  22
NEW PHILLY     FAIR      27  11  51 NW7       29.98S WCI  19
$$




USA.gov is the U.S. government's official web portal to all federal, state and local government web resources and services.